"2016-06-24 00:00:00",1749529,6.676,44.58,3.867,0.827,22.24,108.9042,22.08,23.11,37.04,0,111.2,13.03,22.91,6.6
"2016-06-24 00:00:30",1749530,5.446,44.08,4.463,0.696,22.17,108.9036,22.08,23.12,39.92,0,111.2,13.04,22.91,6.1
"2016-06-24 00:01:00",1749531,7.599,43.85,1.56,0.637,22.44,108.9045,22.08,23.1,35.94,0,111.2,13.04,22.91,5.8
"2016-06-24 00:01:30",1749532,8.1,45.9,1.662,0.515,22.49,108.9087,22.09,23.1,35.21,0,111.2,13.04,22.92,7.9
"2016-06-24 00:02:00",1749533,7.177,40.31,3.681,0.779,22.34,108.9191,22.12,23.12,35.88,0,111.2,13.04,22.95,2.3
"2016-06-24 00:02:30",1749534,5.597,42.69,3.717,0.509,22.19,108.9341,22.16,23.13,38.72,0,111.2,13.04,22.99,4.7
"2016-06-24 00:03:00",1749535,4.628,47.38,4.17,0.662,22.2,108.938,22.17,23.14,40.44,0,111.2,13.04,23.00,9.4
"2016-06-24 00:03:30",1749536,4.78,44.16,2.945,0.48,22.23,108.9398,22.17,23.14,41.21,0,111.2,13.04,23.00,6.2
"2016-06-24 00:04:00",1749537,4.828,37.31,7.114,0.735,22.28,108.9386,22.17,23.15,40.29,0,111.2,13.04,23.00,359.3
"2016-06-24 00:04:30",1749538,6.586,48.54,2.652,0.332,22.25,108.9364,22.16,23.15,37.47,0,111.2,13.04,22.99,10.5
"2016-06-24 00:05:00",1749539,6.9,44.18,3.146,0.576,22.28,108.9367,22.16,23.16,37.64,0,111.2,13.04,22.99,6.2
"2016-06-24 00:05:30",1749540,7.259,42.56,1.033,0.173,22.48,108.9367,22.16,23.15,35.2,0,111.2,13.04,22.99,4.6
"2016-06-24 00:06:00",1749541,7.604,43.14,0.67,0.184,22.52,108.9385,22.17,23.16,33.96,0,111.2,13.04,23.00,5.1
"2016-06-24 00:06:30",1749542,7.337,42.9,0.995,0.296,22.38,108.9413,22.18,23.16,35.54,0,111.2,13.04,23.00,4.9
"2016-06-24 00:07:00",1749543,6.911,43.52,1.612,0.214,22.4,108.9473,22.19,23.19,36.6,0,111.2,13.04,23.02,5.5
"2016-06-24 00:07:30",1749544,6.588,46.97,2.059,0.455,22.37,108.9518,22.2,23.16,37.11,0,111.2,13.04,23.03,9.0
"2016-06-24 00:08:00",1749545,6.174,42.74,3.258,0.382,22.53,108.959,22.22,23.2,36.97,0,111.2,13.04,23.05,4.7
"2016-06-24 00:08:30",1749546,5.853,57.13,4.253,0.594,22.68,108.9733,22.26,23.21,34.07,0,111.2,13.04,23.09,19.1
"2016-06-24 00:09:00",1749547,5.232,57.16,5.049,0.271,23.2,108.9723,22.25,23.2,32.21,0,111.2,13.04,23.08,19.2
"2016-06-24 00:09:30",1749548,5.496,47.28,2.878,0.28,22.57,108.9735,22.26,23.18,33.21,0,111.2,13.04,23.09,9.3
"2016-06-24 00:10:00",1749549,5.017,57.49,5.507,0.234,22.14,108.9738,22.26,23.21,40.05,0,111.2,13.04,23.09,19.5
"2016-06-24 00:10:30",1749550,5.089,53.93,4.917,0.353,22.4,108.9705,22.25,23.23,37.55,0,111.2,13.04,23.08,15.9
"2016-06-24 00:11:00",1749551,4.275,52.29,3.534,0.275,22.28,108.9723,22.25,23.24,38.46,0,111.2,13.04,23.08,14.3
"2016-06-24 00:11:30",1749552,3.594,53.89,4.231,0.206,22.4,108.975,22.26,23.26,40.25,0,111.2,13.04,23.09,15.9
"2016-06-24 00:12:00",1749553,4.209,56.92,3.218,0.267,22.46,108.9784,22.27,23.26,41.12,0,111.2,13.03,23.10,18.9
"2016-06-24 00:12:30",1749554,3.348,62.04,3.439,0.414,22.5,108.9821,22.28,23.28,40.76,0,111.2,13.03,23.11,24.0
"2016-06-24 00:13:00",1749555,3.632,50.95,5.031,0.63,22.45,108.9866,22.29,23.28,38.49,0,111.2,13.03,23.12,13.0
"2016-06-24 00:13:30",1749556,4.036,44.18,3.851,0.203,22.39,108.9916,22.3,23.28,36.54,0,111.2,13.03,23.13,6.2
"2016-06-24 00:14:00",1749557,3.497,43.37,2.574,0.202,22.22,109,22.33,23.28,38.73,0,111.2,13.03,23.16,5.4
"2016-06-24 00:14:30",1749558,4.458,41.68,3.624,0.551,22.47,109.0036,22.34,23.29,37.79,0,111.2,13.03,23.17,3.7
"2016-06-24 00:15:00",1749559,3.451,34.2,5.074,0.612,22.37,109.0057,22.34,23.31,37.63,0,111.2,13.03,23.17,356.2
"2016-06-24 00:15:30",1749560,2.997,37.93,4.33,0.691,22.21,109.0042,22.34,23.31,38.49,0,111.2,13.03,23.17,359.9
"2016-06-24 00:16:00",1749561,3.64,40.57,2.306,0.37,22.21,109.0045,22.34,23.32,37.92,0,111.2,13.03,23.17,2.6
"2016-06-24 00:16:30",1749562,3.004,40.83,3.447,0.467,22.2,109.007,22.34,23.34,38.26,0,111.2,13.03,23.17,2.8
"2016-06-24 00:17:00",1749563,2.576,40.93,2.2,0.356,22.14,109.0233,22.39,23.35,38.72,0,111.2,13.03,23.22,2.9
"2016-06-24 00:17:30",1749564,2.836,39.18,3.256,0.298,22.12,109.0336,22.41,23.35,38.5,0,111.2,13.04,23.24,1.2
"2016-06-24 00:18:00",1749565,3.36,43.53,2.94,0.18,22.1,109.0391,22.43,23.37,37.9,0,111.2,13.04,23.26,5.5
"2016-06-24 00:18:30",1749566,3.149,44.26,5.607,0.177,22.18,109.0373,22.42,23.39,37.34,0,111.2,13.04,23.25,6.3
"2016-06-24 00:19:00",1749567,2.58,37.27,5.986,0.293,22.23,109.0397,22.43,23.4,37.7,0,111.2,13.04,23.26,359.3
"2016-06-24 00:19:30",1749568,2.732,41.75,3.422,0.184,22.13,109.056,22.47,23.43,37.4,0,111.2,13.04,23.30,3.8
"2016-06-24 00:20:00",1749569,2.726,45.7,4.45,0.127,22.17,109.0695,22.5,23.45,38.26,0,111.2,13.04,23.34,7.7
"2016-06-24 00:20:30",1749570,1.741,52.55,7.398,0.51,22.34,109.0695,22.5,23.46,38.8,0,111.2,13.04,23.34,14.5
"2016-06-24 00:21:00",1749571,1.153,65.32,5.592,0.238,22.33,109.0697,22.51,23.48,39.66,0,111.2,13.04,23.34,27.3
"2016-06-24 00:21:30",1749572,0.445,67.67,3.522,0.122,22.34,109.0843,22.54,23.5,40.06,0,111.2,13.04,23.37,29.7
"2016-06-24 00:22:00",1749573,0.853,113,13.76,0.238,22.04,109.0995,22.58,23.52,40.26,0,111.2,13.04,23.41,75.0
"2016-06-24 00:22:30",1749574,0.715,134.6,4.305,0.161,21.99,109.1032,22.59,23.54,40.22,0,111.2,13.04,23.42,96.6
"2016-06-24 00:23:00",1749575,0.516,119.3,13.15,0.12,21.97,109.1032,22.59,23.55,40.25,0,111.2,13.04,23.42,81.3
"2016-06-24 00:23:30",1749576,0.386,123.9,36.12,0.322,21.87,109.1074,22.6,23.57,40.08,0,111.2,13.04,23.43,85.9
"2016-06-24 00:24:00",1749577,0.688,104.6,28.52,0.414,21.82,109.1217,22.64,23.58,39.1,0,111.2,13.03,23.47,66.6
"2016-06-24 00:24:30",1749578,1.369,156.7,6.096,0.202,21.68,109.1369,22.68,23.61,39.49,0,111.2,13.04,23.51,118.7
"2016-06-24 00:25:00",1749579,1.746,164,5.27,0.178,21.66,109.1369,22.68,23.62,39.68,0,111.2,13.04,23.51,126.0
"2016-06-24 00:25:30",1749580,2.002,178.6,6.876,0.158,21.74,109.1391,22.68,23.64,39.53,0,111.2,13.03,23.51,140.6
"2016-06-24 00:26:00",1749581,2.851,186.6,3.597,0.382,21.92,109.1478,22.71,23.66,39.32,0,111.2,13.03,23.54,148.6
"2016-06-24 00:26:30",1749582,2.965,182.6,9.7,0.177,22.13,109.1501,22.71,23.67,40.2,0,111.2,13.03,23.54,144.6
"2016-06-24 00:27:00",1749583,2.797,176.8,6.87,0.178,22.2,109.136,22.68,23.67,40.16,0,111.2,13.03,23.51,138.8
"2016-06-24 00:27:30",1749584,3.091,190.6,8.08,0.398,22.35,109.1342,22.67,23.64,39.45,0,111.2,13.03,23.50,152.6
"2016-06-24 00:28:00",1749585,3.082,195.4,4.504,0.323,22.37,109.1091,22.61,23.63,39.58,0,111.2,13.03,23.44,157.4
"2016-06-24 00:28:30",1749586,3.506,193.7,4.235,0.617,22.41,109.1057,22.6,23.61,39.74,0,111.2,13.03,23.43,155.7
"2016-06-24 00:29:00",1749587,4.793,186.3,2.033,0.506,22.49,109.1038,22.59,23.6,40.13,0,111.2,13.03,23.42,148.3
"2016-06-24 00:29:30",1749588,4.879,179.8,4.905,0.166,22.6,109.103,22.59,23.59,40.48,0,111.2,13.03,23.42,141.8
"2016-06-24 00:30:00",1749589,5.253,179.3,1.779,0.255,22.58,109.1059,22.6,23.6,39.85,0,111.2,13.03,23.43,141.3
"2016-06-24 00:30:30",1749590,5.335,180.8,2.257,0.155,22.54,109.1066,22.6,23.6,39.37,0,111.2,13.03,23.43,142.8
"2016-06-24 00:31:00",1749591,5.181,176.1,4.551,0.541,22.51,109.1051,22.6,23.6,38.97,0,111.2,13.03,23.43,138.1
"2016-06-24 00:31:30",1749592,4.567,168.5,2.294,0.173,22.4,109.1001,22.58,23.61,39.23,0,111.2,13.03,23.41,130.5
"2016-06-24 00:32:00",1749593,4.876,164.9,2.695,0.251,22.43,109.1004,22.58,23.59,39.38,0,111.2,13.03,23.41,126.9
"2016-06-24 00:32:30",1749594,4.341,161.3,3.634,0.181,22.5,109.0963,22.57,23.58,39.29,0,111.2,13.03,23.40,123.3
"2016-06-24 00:33:00",1749595,4.023,171.8,3.61,0.264,22.63,109.0738,22.52,23.56,39.48,0,111.2,13.02,23.35,133.8
"2016-06-24 00:33:30",1749596,3.306,152.6,6.237,0.279,22.69,109.0691,22.5,23.54,39.05,0,111.2,13.03,23.33,114.6
"2016-06-24 00:34:00",1749597,3.339,161.7,5.748,0.195,22.74,109.0669,22.5,23.53,38.6,0,111.2,13.03,23.33,123.7
"2016-06-24 00:34:30",1749598,2.978,150.3,2.975,0.246,22.61,109.0425,22.44,23.5,38.12,0,111.2,13.03,23.27,112.3
"2016-06-24 00:35:00",1749599,2.742,148.8,3.63,0.324,22.53,109.0357,22.42,23.49,38,0,111.2,13.03,23.25,110.8
"2016-06-24 00:35:30",1749600,2.256,153.6,4.903,0.209,22.66,109.0357,22.42,23.47,37.72,0,111.2,13.03,23.25,115.6
"2016-06-24 00:36:00",1749601,1.859,142.8,3.142,0.229,22.55,109.0228,22.38,23.46,37.74,0,111.2,13.03,23.21,104.8
"2016-06-24 00:36:30",1749602,1.93,151,4.861,0.196,22.48,109.0043,22.34,23.42,37.61,0,111.2,13.03,23.17,113.0
"2016-06-24 00:37:00",1749603,2.145,138.9,6.049,0.139,22.39,109.002,22.33,23.42,36.85,0,111.2,13.04,23.16,100.9
"2016-06-24 00:37:30",1749604,1.901,130.7,2.794,0.232,22.31,109.0017,22.33,23.39,36.85,0,111.2,13.04,23.16,92.7
"2016-06-24 00:38:00",1749605,1.587,131.9,4.439,0.115,22.29,109.0017,22.33,23.37,36.87,0,111.2,13.04,23.16,93.9
"2016-06-24 00:38:30",1749606,1.644,104,6.989,0.15,22.34,109.002,22.33,23.38,36.85,0,111.2,13.04,23.16,66.0
"2016-06-24 00:39:00",1749607,1.319,102.4,1.904,0.124,22.25,109.002,22.33,23.35,36.9,0,111.2,13.04,23.16,64.4
"2016-06-24 00:39:30",1749608,1.079,112.5,5.645,0.132,22.1,109.0014,22.33,23.34,37.04,0,111.2,13.04,23.16,74.5
"2016-06-24 00:40:00",1749609,1.357,89.1,9.07,0.212,22.12,109.0011,22.33,23.35,36.8,0,111.2,13.04,23.16,51.1
"2016-06-24 00:40:30",1749610,0.871,76.68,6.496,0.404,22.19,109.0017,22.33,23.34,36.54,0,111.2,13.04,23.16,38.7
"2016-06-24 00:41:00",1749611,0.671,105.3,7.264,0.164,22.06,108.9986,22.32,23.35,36.33,0,111.2,13.04,23.15,67.3
"2016-06-24 00:41:30",1749612,1.461,100,4.746,0.178,22,108.9962,22.32,23.35,36.32,0,111.2,13.04,23.15,62.0
"2016-06-24 00:42:00",1749613,1.391,106.4,4.386,0.133,21.9,109.0078,22.35,23.37,36.52,0,111.2,13.04,23.18,68.4
"2016-06-24 00:42:30",1749614,1.635,100.6,7.491,0.097,21.96,109.0206,22.38,23.36,36.39,0,111.2,13.04,23.21,62.6
"2016-06-24 00:43:00",1749615,1.141,80,6.67,0.089,22.02,109.0256,22.39,23.37,35.89,0,111.2,13.04,23.22,42.0
"2016-06-24 00:43:30",1749616,1.359,89.2,6.654,0.346,22.02,109.0244,22.39,23.39,35.91,0,111.2,13.04,23.22,51.2
"2016-06-24 00:44:00",1749617,2.064,91.8,3.135,0.217,21.99,109.0246,22.39,23.39,36.36,0,111.2,13.04,23.22,53.8
"2016-06-24 00:44:30",1749618,1.695,89.6,5.822,0.358,22.07,109.046,22.44,23.43,36.43,0,111.2,13.04,23.27,51.6
"2016-06-24 00:45:00",1749619,1.07,82.4,11.13,0.15,22.1,109.0449,22.44,23.43,35.99,0,111.2,13.04,23.27,44.4
"2016-06-24 00:45:30",1749620,1.078,99.5,11.55,0.212,21.98,109.0388,22.43,23.44,36.59,0,111.2,13.04,23.26,61.5
"2016-06-24 00:46:00",1749621,1.088,128.6,6.447,0.245,21.76,109.0557,22.47,23.46,37.12,0,111.2,13.04,23.30,90.6
"2016-06-24 00:46:30",1749622,1.057,139.2,4.02,0.135,21.77,109.0662,22.5,23.5,37.22,0,111.2,13.03,23.33,101.2
"2016-06-24 00:47:00",1749623,0.978,150,6.282,0.177,21.79,109.067,22.5,23.52,37.62,0,111.2,13.03,23.33,112.0
"2016-06-24 00:47:30",1749624,1.479,142.7,9.61,0.263,21.77,109.0746,22.52,23.53,38.05,0,111.2,13.03,23.35,104.7
"2016-06-24 00:48:00",1749625,1.922,147.4,3.305,0.268,21.77,109.0967,22.57,23.56,38.54,0,111.2,13.03,23.41,109.4
"2016-06-24 00:48:30",1749626,1.512,159.3,9.73,0.146,21.8,109.1001,22.58,23.59,38.53,0,111.2,13.03,23.41,121.3
"2016-06-24 00:49:00",1749627,1.775,153.2,8.55,0.133,21.83,109.1032,22.59,23.6,38.72,0,111.2,13.03,23.42,115.2
"2016-06-24 00:49:30",1749628,1.563,147.7,2.224,0.104,21.82,109.113,22.62,23.64,38.68,0,111.2,13.03,23.45,109.7
"2016-06-24 00:50:00",1749629,1.209,154.9,8.04,0.199,21.86,109.1259,22.65,23.64,38.61,0,111.2,13.03,23.48,116.9
"2016-06-24 00:50:30",1749630,1.234,157.7,6.777,0.216,21.87,109.1338,22.67,23.67,38.6,0,111.2,13.03,23.50,119.7
"2016-06-24 00:51:00",1749631,1.141,153.8,5.324,0.28,21.88,109.1338,22.67,23.68,38.54,0,111.2,13.03,23.50,115.8
"2016-06-24 00:51:30",1749632,0.559,150.3,9.69,0.141,21.87,109.1386,22.68,23.68,38.49,0,111.2,13.03,23.51,112.3
"2016-06-24 00:52:00",1749633,0.586,172.3,8.09,0.189,21.9,109.1605,22.74,23.72,38.5,0,111.2,13.03,23.57,134.3
"2016-06-24 00:52:30",1749634,0.813,170.4,5.427,0.099,21.93,109.1675,22.76,23.73,38.44,0,111.2,13.03,23.59,132.4
"2016-06-24 00:53:00",1749635,1.081,174.7,7.334,0.142,21.81,109.1675,22.76,23.74,38.33,0,111.2,13.03,23.59,136.7
"2016-06-24 00:53:30",1749636,1.388,190,6.811,0.158,21.82,109.1686,22.76,23.76,38.36,0,111.2,13.03,23.59,152.0
"2016-06-24 00:54:00",1749637,1.455,204.4,9.78,0.257,21.97,109.1684,22.76,23.76,38.19,0,111.2,13.03,23.59,166.4
"2016-06-24 00:54:30",1749638,1.094,209.1,9.78,0.239,22.08,109.1526,22.72,23.75,38.1,0,111.2,13.03,23.55,171.1
"2016-06-24 00:55:00",1749639,1.265,168.9,16.66,0.117,21.9,109.131,22.66,23.72,38.09,0,111.2,13.03,23.49,130.9
"2016-06-24 00:55:30",1749640,1.507,168,4.339,0.208,21.9,109.1374,22.68,23.7,37.93,0,111.2,13.03,23.51,130.0
"2016-06-24 00:56:00",1749641,1.767,172,7.517,0.128,21.9,109.1588,22.73,23.7,37.92,0,111.2,13.03,23.57,134.0
"2016-06-24 00:56:30",1749642,1.949,164.4,4.606,0.172,21.91,109.1595,22.74,23.72,37.9,0,111.3,13.03,23.57,126.4
"2016-06-24 00:57:00",1749643,1.692,159.1,5.346,0.159,21.95,109.1592,22.73,23.71,37.97,0,111.2,13.03,23.57,121.1
"2016-06-24 00:57:30",1749644,2.087,172.3,5.961,0.445,21.86,109.1648,22.75,23.73,37.75,0,111.2,13.03,23.58,134.3
"2016-06-24 00:58:00",1749645,2.087,171.5,6.45,0.259,21.97,109.1833,22.8,23.76,37.54,0,111.3,13.03,23.63,133.5
"2016-06-24 00:58:30",1749646,2.405,179.1,2.359,0.132,21.93,109.1923,22.82,23.77,37.55,0,111.2,13.03,23.65,141.1
"2016-06-24 00:59:00",1749647,2.575,168.3,3.487,0.131,22.01,109.192,22.82,23.78,37.54,0,111.3,13.03,23.65,130.3
"2016-06-24 00:59:30",1749648,2.338,162.4,2.611,0.247,22.05,109.1917,22.82,23.8,37.54,0,111.3,13.03,23.65,124.4
"2016-06-24 01:00:00",1749649,2.328,168.9,4.921,0.138,22.03,109.1908,22.82,23.8,37.48,0,111.3,13.03,23.65,130.9
"2016-06-24 01:00:30",1749650,2.918,159.6,3.189,0.231,22.11,109.1917,22.82,23.82,37.48,0,111.3,13.03,23.65,121.6
"2016-06-24 01:01:00",1749651,2.856,164.4,4.309,0.138,22.18,109.1892,22.81,23.83,37.5,0,111.2,13.03,23.64,126.4
"2016-06-24 01:01:30",1749652,2.67,164.8,7.094,0.211,22.25,109.1889,22.81,23.82,37.55,0,111.3,13.03,23.64,126.8
"2016-06-24 01:02:00",1749653,3.006,162,3.475,0.251,22.24,109.1908,22.82,23.83,37.39,0,111.3,13.03,23.65,124.0
"2016-06-24 01:02:30",1749654,3.114,171,2.862,0.239,22.34,109.1911,22.82,23.83,37.35,0,111.3,13.03,23.65,133.0
"2016-06-24 01:03:00",1749655,2.606,173.8,7.065,0.201,22.32,109.1917,22.82,23.83,37.3,0,111.3,13.03,23.65,135.8
"2016-06-24 01:03:30",1749656,1.982,164.5,3.652,0.194,22.26,109.1917,22.82,23.83,37.24,0,111.3,13.03,23.65,126.5
"2016-06-24 01:04:00",1749657,2.334,163.3,5.031,0.15,22.23,109.192,22.82,23.83,37.2,0,111.3,13.02,23.65,125.3
"2016-06-24 01:04:30",1749658,2.354,168.6,4.105,0.3,22.27,109.1749,22.78,23.81,37.26,0,111.3,13.02,23.61,130.6
"2016-06-24 01:05:00",1749659,2.628,167,7.728,0.252,22.29,109.1583,22.73,23.8,37.24,0,111.3,13.02,23.56,129.0
"2016-06-24 01:05:30",1749660,2.759,165.9,4.498,0.144,22.28,109.1583,22.73,23.78,37.3,0,111.3,13.02,23.56,127.9
"2016-06-24 01:06:00",1749661,2.175,176.1,7.135,0.173,22.34,109.1583,22.73,23.78,37.15,0,111.3,13.02,23.56,138.1
"2016-06-24 01:06:30",1749662,2.198,169.7,2.721,0.127,22.36,109.1583,22.73,23.77,37.02,0,111.3,13.02,23.56,131.7
"2016-06-24 01:07:00",1749663,2.314,181.5,4.056,0.262,22.38,109.1583,22.73,23.75,36.5,0,111.3,13.02,23.56,143.5
"2016-06-24 01:07:30",1749664,2.178,181.2,4.174,0.18,22.37,109.1583,22.73,23.74,36.37,0,111.3,13.02,23.56,143.2
"2016-06-24 01:08:00",1749665,1.865,180.9,1.931,0.123,22.29,109.1583,22.73,23.74,36.3,0,111.3,13.02,23.56,142.9
"2016-06-24 01:08:30",1749666,1.651,190.5,4.039,0.135,22.32,109.1583,22.73,23.74,36.15,0,111.3,13.02,23.56,152.5
"2016-06-24 01:09:00",1749667,1.665,201.2,3.89,0.125,22.29,109.1583,22.73,23.73,36.49,0,111.3,13.02,23.56,163.2
"2016-06-24 01:09:30",1749668,1.767,202.8,4.281,0.145,22.21,109.1583,22.73,23.73,36.97,0,111.3,13.02,23.56,164.8
"2016-06-24 01:10:00",1749669,1.399,209.9,6.651,0.155,22.24,109.1583,22.73,23.72,37.04,0,111.3,13.03,23.56,171.9
"2016-06-24 01:10:30",1749670,1.501,225.1,7.183,0.147,22.24,109.1583,22.73,23.74,37.12,0,111.2,13.03,23.56,187.1
"2016-06-24 01:11:00",1749671,1.858,245,4.031,0.382,22.25,109.1583,22.73,23.74,37.14,0,111.3,13.03,23.56,207.0
"2016-06-24 01:11:30",1749672,1.915,241.8,2.734,0.108,22.32,109.1577,22.73,23.75,37.2,0,111.3,13.03,23.56,203.8
"2016-06-24 01:12:00",1749673,2.081,235.8,3.993,0.222,22.25,109.158,22.73,23.74,37.18,0,111.3,13.03,23.56,197.8
"2016-06-24 01:12:30",1749674,2.331,234,2.696,0.149,22.27,109.158,22.73,23.74,37.13,0,111.3,13.03,23.56,196.0
"2016-06-24 01:13:00",1749675,1.991,221,5.696,0.204,22.27,109.158,22.73,23.75,37.02,0,111.3,13.03,23.56,183.0
"2016-06-24 01:13:30",1749676,1.943,221.1,4.062,0.233,22.29,109.158,22.73,23.75,36.92,0,111.3,13.03,23.56,183.1
"2016-06-24 01:14:00",1749677,2.093,217,6.275,0.366,22.37,109.1574,22.73,23.75,36.86,0,111.3,13.03,23.56,179.0
"2016-06-24 01:14:30",1749678,1.549,207.4,9.61,0.18,22.58,109.1391,22.68,23.74,36.72,0,111.3,13.03,23.51,169.4
"2016-06-24 01:15:00",1749679,1.885,207.9,5.315,0.15,22.41,109.0957,22.57,23.69,36.73,0,111.3,13.03,23.40,169.9
"2016-06-24 01:15:30",1749680,1.951,213.6,4.691,0.173,22.34,109.0878,22.55,23.65,37.01,0,111.3,13.03,23.38,175.6
"2016-06-24 01:16:00",1749681,2.114,209.4,5.934,0.253,22.39,109.0924,22.56,23.6,37.05,0,111.2,13.03,23.39,171.4
"2016-06-24 01:16:30",1749682,2.176,205.3,3.553,0.093,22.36,109.0978,22.58,23.61,36.98,0,111.3,13.03,23.41,167.3
"2016-06-24 01:17:00",1749683,2.09,211.9,3.454,0.135,22.37,109.1017,22.59,23.6,36.89,0,111.3,13.03,23.42,173.9
"2016-06-24 01:17:30",1749684,2.608,209.5,3.271,0.27,22.43,109.1065,22.6,23.62,36.97,0,111.2,13.03,23.43,171.5
"2016-06-24 01:18:00",1749685,2.867,201.7,5.648,0.182,22.46,109.1177,22.63,23.62,37.1,0,111.3,13.03,23.46,163.7
"2016-06-24 01:18:30",1749686,3.604,193.1,3.273,0.163,22.51,109.1234,22.64,23.64,36.98,0,111.3,13.03,23.47,155.1
"2016-06-24 01:19:00",1749687,3.844,194.9,2.293,0.123,22.54,109.1231,22.64,23.64,36.97,0,111.3,13.03,23.47,156.9
"2016-06-24 01:19:30",1749688,3.97,192.7,2.172,0.178,22.55,109.1237,22.64,23.64,36.96,0,111.2,13.03,23.47,154.7
"2016-06-24 01:20:00",1749689,3.829,190.6,2.475,0.089,22.61,109.1237,22.64,23.65,36.7,0,111.3,13.03,23.47,152.6
"2016-06-24 01:20:30",1749690,3.912,188.9,3.418,0.116,22.69,109.1271,22.65,23.67,36.47,0,111.3,13.03,23.48,150.9
"2016-06-24 01:21:00",1749691,3.728,183.1,1.916,0.234,22.65,109.1301,22.66,23.67,36.36,0,111.3,13.03,23.49,145.1
"2016-06-24 01:21:30",1749692,3.262,183,2.254,0.173,22.61,109.1299,22.66,23.67,36.39,0,111.2,13.03,23.49,145.0
"2016-06-24 01:22:00",1749693,3.46,175.1,3.304,0.105,22.66,109.1285,22.66,23.67,36.42,0,111.3,13.03,23.49,137.1
"2016-06-24 01:22:30",1749694,3.245,174.3,3.933,0.184,22.59,109.1249,22.65,23.67,36.01,0,111.2,13.02,23.48,136.3
"2016-06-24 01:23:00",1749695,2.98,179.4,3.016,0.177,22.61,109.1252,22.65,23.67,36.2,0,111.2,13.02,23.48,141.4
"2016-06-24 01:23:30",1749696,2.621,178.1,3.697,0.166,22.58,109.1252,22.65,23.67,36.1,0,111.2,13.02,23.48,140.1
"2016-06-24 01:24:00",1749697,2.379,179.8,2.952,0.143,22.54,109.1233,22.64,23.67,36.05,0,111.2,13.02,23.47,141.8
"2016-06-24 01:24:30",1749698,2.001,180.8,1.882,0.154,22.55,109.1113,22.61,23.66,36.04,0,111.2,13.02,23.44,142.8
"2016-06-24 01:25:00",1749699,1.715,180.9,10.38,0.152,22.54,109.1036,22.59,23.65,36.12,0,111.2,13.02,23.42,142.9
"2016-06-24 01:25:30",1749700,1.534,210.9,6.773,0.213,22.45,109.1024,22.59,23.64,36.38,0,111.2,13.02,23.42,172.9
"2016-06-24 01:26:00",1749701,1.687,221.8,1.56,0.228,22.45,109.0981,22.58,23.64,36.46,0,111.2,13.02,23.41,183.8
"2016-06-24 01:26:30",1749702,1.341,227.1,5.045,0.142,22.48,109.0952,22.57,23.64,36.46,0,111.2,13.03,23.40,189.1
"2016-06-24 01:27:00",1749703,1.784,218.6,5.721,0.087,22.5,109.0964,22.57,23.63,36.47,0,111.2,13.03,23.40,180.6
"2016-06-24 01:27:30",1749704,1.467,220.3,2.194,0.265,22.49,109.0949,22.57,23.62,36.46,0,111.2,13.03,23.40,182.3
"2016-06-24 01:28:00",1749705,1.944,207.7,4.2,0.182,22.49,109.0973,22.58,23.61,36.23,0,111.2,13.03,23.41,169.7
"2016-06-24 01:28:30",1749706,1.658,216.1,5.35,0.129,22.49,109.0953,22.57,23.59,36.26,0,111.2,13.03,23.40,178.1
"2016-06-24 01:29:00",1749707,1.976,216.5,5.594,0.128,22.56,109.0965,22.57,23.58,36.5,0,111.2,13.03,23.40,178.5
"2016-06-24 01:29:30",1749708,2.205,214.5,1.974,0.094,22.57,109.0971,22.58,23.58,36.57,0,111.2,13.03,23.41,176.5
"2016-06-24 01:30:00",1749709,2.289,205.6,5.478,0.111,22.59,109.0979,22.58,23.59,36.54,0,111.2,13.03,23.41,167.6
"2016-06-24 01:30:30",1749710,2.586,200,3.153,0.146,22.59,109.0998,22.58,23.57,36.44,0,111.2,13.03,23.41,162.0
"2016-06-24 01:31:00",1749711,2.639,201.1,2.143,0.117,22.6,109.0992,22.58,23.57,36.45,0,111.2,13.03,23.41,163.1
"2016-06-24 01:31:30",1749712,2.511,208.6,3.956,0.163,22.62,109.0992,22.58,23.58,36.47,0,111.2,13.03,23.41,170.6
"2016-06-24 01:32:00",1749713,2.85,211.4,5.408,0.137,22.65,109.0995,22.58,23.57,36.39,0,111.2,13.03,23.41,173.4
"2016-06-24 01:32:30",1749714,2.833,201.8,5.274,0.105,22.69,109.0998,22.58,23.58,36.26,0,111.2,13.03,23.41,163.8
"2016-06-24 01:33:00",1749715,3.142,198.1,2.012,0.19,22.69,109.1001,22.58,23.59,36.19,0,111.2,13.03,23.41,160.1
"2016-06-24 01:33:30",1749716,3.215,198.5,2.152,0.071,22.71,109.1001,22.58,23.6,36.06,0,111.2,13.03,23.41,160.5
"2016-06-24 01:34:00",1749717,3.296,197.5,1.819,0.056,22.76,109.1001,22.58,23.59,35.91,0,111.2,13.03,23.41,159.5
"2016-06-24 01:34:30",1749718,3.086,203.7,3.433,0.074,22.65,109.1001,22.58,23.58,35.84,0,111.2,13.03,23.41,165.7
"2016-06-24 01:35:00",1749719,3.206,205,1.138,0.072,22.68,109.1001,22.58,23.59,35.85,0,111.2,13.03,23.41,167.0
"2016-06-24 01:35:30",1749720,3.09,204.3,1.578,0.107,22.72,109.1001,22.58,23.59,35.83,0,111.2,13.03,23.41,166.3
"2016-06-24 01:36:00",1749721,3,207.4,1.664,0.055,22.67,109.1001,22.58,23.6,35.89,0,111.2,13.03,23.41,169.4
"2016-06-24 01:36:30",1749722,2.9,208.2,1.963,0.145,22.8,109.1001,22.58,23.6,35.95,0,111.2,13.03,23.41,170.2
"2016-06-24 01:37:00",1749723,3.087,213.8,3.141,0.241,22.81,109.1001,22.58,23.59,35.87,0,111.2,13.04,23.41,175.8
"2016-06-24 01:37:30",1749724,2.997,216.4,1.21,0.072,22.85,109.0998,22.58,23.6,35.8,0,111.2,13.03,23.41,178.4
"2016-06-24 01:38:00",1749725,3.081,218,0.885,0.081,22.84,109.0981,22.58,23.58,35.78,0,111.2,13.03,23.41,180.0
"2016-06-24 01:38:30",1749726,3.063,220.8,0.861,0.129,22.69,109.0922,22.56,23.59,35.79,0,111.2,13.04,23.39,182.8
"2016-06-24 01:39:00",1749727,2.969,219.2,3.939,0.18,22.73,109.0824,22.54,23.59,35.74,0,111.2,13.03,23.37,181.2
"2016-06-24 01:39:30",1749728,2.69,214.5,3.104,0.169,22.74,109.0748,22.52,23.57,35.66,0,111.2,13.03,23.35,176.5
"2016-06-24 01:40:00",1749729,2.766,215,1.697,0.087,22.7,109.0737,22.52,23.56,35.64,0,111.2,13.03,23.35,177.0
"2016-06-24 01:40:30",1749730,2.646,210.6,3.702,0.123,22.81,109.0689,22.5,23.56,35.53,0,111.2,13.03,23.33,172.6
"2016-06-24 01:41:00",1749731,2.774,213.4,2.54,0.163,22.83,109.0672,22.5,23.55,35.41,0,111.2,13.03,23.33,175.4
"2016-06-24 01:41:30",1749732,2.798,215.6,1.937,0.146,22.87,109.0664,22.5,23.55,35.52,0,111.2,13.03,23.33,177.6
"2016-06-24 01:42:00",1749733,2.854,215.8,1.511,0.097,22.84,109.0664,22.5,23.54,35.77,0,111.2,13.03,23.33,177.8
"2016-06-24 01:42:30",1749734,2.686,215,1.515,0.106,22.83,109.0664,22.5,23.56,36,0,111.2,13.03,23.33,177.0
"2016-06-24 01:43:00",1749735,2.698,210.3,2.799,0.094,22.86,109.0664,22.5,23.55,36.12,0,111.2,13.03,23.33,172.3
"2016-06-24 01:43:30",1749736,2.678,204.9,2.996,0.094,22.93,109.0664,22.5,23.54,36.03,0,111.2,13.03,23.33,166.9
"2016-06-24 01:44:00",1749737,2.812,205,2.909,0.089,22.91,109.0664,22.5,23.54,35.75,0,111.2,13.03,23.33,167.0
"2016-06-24 01:44:30",1749738,3.149,205.9,1.456,0.089,22.85,109.0664,22.5,23.54,35.47,0,111.2,13.03,23.33,167.9
"2016-06-24 01:45:00",1749739,3.097,207.4,1.509,0.129,22.87,109.0664,22.5,23.55,35.45,0,111.2,13.03,23.33,169.4
"2016-06-24 01:45:30",1749740,3.075,207.9,1.109,0.14,22.94,109.0664,22.5,23.54,35.75,0,111.2,13.04,23.33,169.9
"2016-06-24 01:46:00",1749741,2.82,208.9,1.591,0.075,23.02,109.0664,22.5,23.54,35.58,0,111.2,13.04,23.33,170.9
"2016-06-24 01:46:30",1749742,2.697,212.6,1.153,0.084,22.77,109.0664,22.5,23.55,35.73,0,111.2,13.04,23.33,174.6
"2016-06-24 01:47:00",1749743,2.515,212.2,1.017,0.14,22.86,109.0664,22.5,23.54,36.02,0,111.2,13.04,23.33,174.2